This demonstration page uses our WeatherBlox Daily Observations layout. Learn more.

Left ArrowRight Arrow

41.12389, -100.76542

Hourly Observations for September 11, 2016

Temp ( °F °C ) Dew Point ( °F °C ) Humidity (%) Winds ( mph kmh ) Pressure ( in mb ) Visibility ( mi km ) Precip ( " mm )
12:53 am 00:53 Clear 60 15.6 41 5 50 50 SSE 7 11 30.05 1018 10 16 0.00 0.00
1:53 am 01:53 Clear 60 15.6 41 5 50 50 SSE 12 19 30.03 1017 10 16 0.00 0.00
2:53 am 02:53 Clear 59 15 41 5 51 51 SE 8 13 30.02 1017 10 16 0.00 0.00
3:53 am 03:53 Clear 58 14.4 42 5.6 56 56 SE 8 13 30.00 1016 10 16 0.00 0.00
4:53 am 04:53 Clear 56 13.3 42 5.6 60 60 SSE 9 15 29.98 1015 10 16 0.00 0.00
5:53 am 05:53 Clear 57 13.9 42 5.6 58 58 S 12 19 29.98 1015 10 16 0.00 0.00
6:53 am 06:53 Clear 54 12.2 43 6.1 67 67 S 12 19 29.99 1016 10 16 0.00 0.00
7:53 am 07:53 Sunny 55 12.8 43 6.1 64 64 S 8 13 29.99 1016 10 16 0.00 0.00
8:53 am 08:53 Sunny 58 14.4 44 6.7 60 60 S 9 15 30.01 1016 10 16 0.00 0.00
9:53 am 09:53 Sunny 63 17.2 46 7.8 54 54 S 8 13 29.99 1016 10 16 0.00 0.00
10:53 am 10:53 Sunny 68 20 47 8.3 47 47 S 10 17 29.96 1014 10 16 0.00 0.00
11:53 am 11:53 Sunny 74 23.3 47 8.3 38 38 SSW 9 15 29.94 1014 10 16 0.00 0.00
12:53 pm 12:53 Sunny 79 26.1 50 10 36 36 S 12 19 29.89 1012 10 16 0.00 0.00
1:53 pm 13:53 Sunny 84 28.9 50 10 31 31 S 10 17 29.84 1011 10 16 0.00 0.00
2:53 pm 14:53 Sunny 87 30.6 50 10 28 28 S 12 19 29.82 1010 10 16 0.00 0.00
3:53 pm 15:53 Sunny 88 31.1 51 10.6 28 28 S 13 20 29.80 1009 10 16 0.00 0.00
4:53 pm 16:53 Sunny 88 31.1 52 11.1 29 29 S 17 28 29.77 1008 10 16 0.00 0.00
5:53 pm 17:53 Sunny 87 30.6 53 11.7 31 31 S 13 20 29.75 1007 10 16 0.00 0.00
6:53 pm 18:53 Sunny 84 28.9 55 12.8 37 37 SSE 7 11 29.75 1007 10 16 0.00 0.00
7:53 pm 19:53 Sunny 78 25.6 57 13.9 48 48 SSE 7 11 29.76 1008 10 16 0.00 0.00
8:53 pm 20:53 Clear 74 23.3 57 13.9 56 56 SE 8 13 29.76 1008 10 16 0.00 0.00
9:53 pm 21:53 Clear 74 23.3 60 15.6 62 62 SSE 12 19 29.76 1008 10 16 0.00 0.00
10:53 pm 22:53 Clear 73 22.8 60 15.6 64 64 S 15 24 29.74 1007 10 16 0.00 0.00
11:53 pm 23:53 Clear 71 21.7 60 15.6 68 68 S 14 22 29.73 1007 10 16 0.00 0.00

Powered by AerisWeather